Location: Fatehalanka
(16.3139°N, 80.8379°E)
Time: 04:48:50
(UTC+00:00)

Cosmos 1605 Rocket - Pass Details

Date: 14 May 2026
Orbit: 945 x 1004 km, 82.9° (Epoch: 6 June)

Event Time Altitude Azimuth Distance (km) Brightness Sun altitude
Rises 13:12:50 0° 185° (S) 3,610 6.8 -3.8°
Reaches altitude 10° 13:15:18 10° 186° (S) 2,672 6.2 -4.4°
Maximum altitude 13:21:25 83° 274° (W) 971 4.1 -5.8°
Drops below altitude 10° 13:27:38 10° 2° (N) 2,713 6.6 -7.1°
Sets 13:30:09 0° 3° (N) 3,670 7.3 -7.7°
